• In Czech Republic
  • List of Countries
  • For 7 days
  • Water Temperature
  • Satellite Maps
  • Weather Map
  • Weather Widgets
  • user-avatar
    Login

    Hourly Weather Bogorodchany

    Today, 19 September, Wednesday

    Time Temperature Precipitation Wind Pressure Humidity
    00:00 +17°C° 0 mm 0 mps 737 mmHg 88%
    01:00 +19°C° 0 mm 1 mps 737 mmHg 76%
    02:00 +14°C° 0 mm 1 mps 736 mmHg 79%
    03:00 +14°C° 0 mm 1 mps 736 mmHg 81%
    04:00 +14°C° 0 mm 0 mps 736 mmHg 73%
    05:00 +15°C° 0 mm 0 mps 736 mmHg 69%
    06:00 +15°C° 0 mm 0 mps 736 mmHg 67%
    07:00 +16°C° 0 mm 1 mps 737 mmHg 66%
    08:00 +18°C° 0 mm 1 mps 737 mmHg 66%
    09:00 +17°C° 0 mm 0 mps 737 mmHg 70%
    10:00 +19°C° 0 mm 0 mps 738 mmHg 66%
    11:00 +23°C° 0 mm 1 mps 738 mmHg 62%
    12:00 +24°C° 0 mm 1 mps 738 mmHg 64%
    13:00 +25°C° 0 mm 2 mps 738 mmHg 62%
    14:00 +25°C° 0 mm 2 mps 738 mmHg 59%
    15:00 +25°C° 0 mm 2 mps 738 mmHg 59%
    16:00 +25°C° 0 mm 2 mps 737 mmHg 59%
    17:00 +24°C° 0 mm 2 mps 737 mmHg 64%
    18:00 +23°C° 0 mm 1 mps 737 mmHg 76%
    19:00 +22°C° 0 mm 1 mps 737 mmHg 79%
    20:00 +22°C° 0 mm 1 mps 737 mmHg 82%
    21:00 +21°C° 0 mm 1 mps 737 mmHg 82%
    22:00 +21°C° 0 mm 1 mps 737 mmHg 83%
    23:00 +20°C° 0 mm 1 mps 737 mmHg 82%

    Tomorrow, 20 September, Thursday

    Time Temperature Precipitation Wind Pressure Humidity
    00:00 +20°C° 0 mm 1 mps 737 mmHg 83%
    01:00 +19°C° 0 mm 1 mps 737 mmHg 83%
    02:00 +19°C° 0 mm 1 mps 737 mmHg 83%
    03:00 +19°C° 0 mm 1 mps 737 mmHg 82%
    04:00 +17°C° 0 mm 0 mps 737 mmHg 83%
    05:00 +16°C° 0 mm 0 mps 737 mmHg 83%
    06:00 +16°C° 0 mm 0 mps 736 mmHg 82%
    07:00 +16°C° 0 mm 0 mps 737 mmHg 81%
    08:00 +16°C° 0 mm 0 mps 737 mmHg 82%
    09:00 +17°C° 0 mm 0 mps 737 mmHg 87%
    10:00 +19°C° 0 mm 0 mps 737 mmHg 85%
    11:00 +22°C° 0 mm 1 mps 737 mmHg 83%
    12:00 +23°C° 0 mm 1 mps 738 mmHg 84%
    13:00 +24°C° 0 mm 1 mps 737 mmHg 82%
    14:00 +24°C° 0 mm 1 mps 737 mmHg 80%
    15:00 +24°C° 0 mm 2 mps 737 mmHg 76%
    16:00 +24°C° 0 mm 2 mps 737 mmHg 75%
    17:00 +24°C° 0 mm 1 mps 737 mmHg 78%
    18:00 +23°C° 0 mm 1 mps 736 mmHg 88%
    19:00 +22°C° 0 mm 1 mps 736 mmHg 93%
    20:00 +22°C° 0 mm 1 mps 736 mmHg 95%
    21:00 +21°C° 0 mm 1 mps 736 mmHg 97%
    22:00 +21°C° 0 mm 1 mps 736 mmHg 96%
    23:00 +18°C° 0 mm 0 mps 736 mmHg 98%

    Day after tomorrow, 21 September, Friday

    Time Temperature Precipitation Wind Pressure Humidity
    00:00 +18°C° 0 mm 0 mps 736 mmHg 97%
    01:00 +17°C° 0 mm 0 mps 736 mmHg 97%
    02:00 +17°C° 0 mm 0 mps 736 mmHg 97%
    03:00 +16°C° 0 mm 0 mps 735 mmHg 99%
    04:00 +15°C° 0 mm 0 mps 735 mmHg 100%
    05:00 +15°C° 0 mm 0 mps 735 mmHg 100%
    06:00 +14°C° 0 mm 0 mps 735 mmHg 100%
    07:00 +14°C° 0 mm 0 mps 736 mmHg 100%
    08:00 +15°C° 0 mm 0 mps 735 mmHg 98%
    09:00 +16°C° 0 mm 0 mps 736 mmHg 100%
    10:00 +19°C° 0 mm 1 mps 736 mmHg 95%
    11:00 +20°C° 0 mm 2 mps 736 mmHg 93%
    12:00 +21°C° 0 mm 2 mps 736 mmHg 95%
    13:00 +23°C° 0 mm 2 mps 736 mmHg 93%
    14:00 +23°C° 0 mm 2 mps 735 mmHg 93%
    15:00 +24°C° 0 mm 3 mps 735 mmHg 88%
    16:00 +24°C° 0 mm 3 mps 735 mmHg 91%
    17:00 +24°C° 0 mm 2 mps 735 mmHg 89%
    18:00 +23°C° 0 mm 1 mps 734 mmHg 95%
    19:00 +22°C° 0 mm 1 mps 734 mmHg 95%
    20:00 +20°C° 0 mm 2 mps 734 mmHg 93%
    21:00 +20°C° 0 mm 1 mps 734 mmHg 93%
    22:00 +20°C° 0 mm 1 mps 734 mmHg 94%
    23:00 +20°C° 0 mm 1 mps 734 mmHg 88%

    22 September, Saturday

    Time Temperature Precipitation Wind Pressure Humidity
    00:00 +20°C° 0 mm 1 mps 734 mmHg 81%
    01:00 +19°C° 0 mm 1 mps 733 mmHg 77%
    02:00 +19°C° 0 mm 1 mps 733 mmHg 77%
    03:00 +19°C° 0 mm 1 mps 733 mmHg 76%
    04:00 +18°C° 0 mm 1 mps 733 mmHg 77%
    05:00 +18°C° 0 mm 1 mps 733 mmHg 81%
    06:00 +16°C° 0 mm 1 mps 733 mmHg 83%
    07:00 +16°C° 0 mm 1 mps 733 mmHg 84%
    08:00 +18°C° 0 mm 1 mps 733 mmHg 90%
    09:00 +17°C° 0 mm 0 mps 733 mmHg 93%
    10:00 +19°C° 0 mm 0 mps 734 mmHg 86%
    11:00 +20°C° 0 mm 0 mps 734 mmHg 78%
    12:00 +21°C° 0 mm 0 mps 734 mmHg 80%
    13:00 +24°C° 0 mm 1 mps 733 mmHg 77%
    14:00 +17°C° 0.9 mm 9 mps 734 mmHg 95%
    15:00 +14°C° 0.2 mm 6 mps 734 mmHg 93%
    16:00 +13°C° 0 mm 6 mps 734 mmHg 94%
    17:00 +13°C° 0 mm 5 mps 734 mmHg 95%
    18:00 +12°C° 0 mm 5 mps 734 mmHg 95%
    19:00 +10°C° 0 mm 5 mps 735 mmHg 96%
    20:00 +11°C° 0.8 mm 4 mps 735 mmHg 98%
    21:00 +10°C° 0.5 mm 3 mps 735 mmHg 100%
    22:00 +10°C° 1 mm 0 mps 734 mmHg 100%
    23:00 +10°C° 1.9 mm 3 mps 735 mmHg 100%

    23 September, Sunday

    Time Temperature Precipitation Wind Pressure Humidity
    00:00 +8°C° 0.8 mm 5 mps 735 mmHg 98%
    01:00 +9°C° 0 mm 3 mps 735 mmHg 99%
    02:00 +9°C° 0 mm 3 mps 735 mmHg 97%

    24 September, Monday

    Time Temperature Precipitation Wind Pressure Humidity
    Show more